Time,TemperatureF,DewpointF,PressureIn,WindDirection,WindDirectionDegrees,WindSpeedMPH,WindSpeedGustMPH,Humidity,HourlyPrecipIn,Conditions,Clouds,dailyrainin,SolarRadiationWatts/m^2,SoftwareType,DateUTC
2013-06-17 00:02:00,67.0,67.0,-100.00,ESE,112,0.0,0.0,100,0.00,,,0.02,0.000000,,2013-06-17 04:02:00,
2013-06-17 00:12:00,67.0,67.0,-100.00,ESE,112,0.0,0.0,100,0.00,,,0.02,0.000000,,2013-06-17 04:12:00,
2013-06-17 00:22:00,67.0,67.0,-100.00,ESE,112,0.0,0.0,100,0.00,,,0.02,0.000000,,2013-06-17 04:22:00,
2013-06-17 00:43:00,67.0,67.0,-100.00,SE,124,0.0,1.0,100,0.00,,,0.02,0.000000,,2013-06-17 04:43:00,
2013-06-17 00:53:00,67.0,67.0,-100.00,SE,124,0.0,1.0,100,0.00,,,0.02,0.000000,,2013-06-17 04:53:00,
2013-06-17 01:02:00,67.0,67.0,-100.00,SE,124,0.0,1.0,100,0.00,,,0.02,0.000000,,2013-06-17 05:02:00,
2013-06-17 01:12:00,67.0,67.0,-100.00,SE,124,0.0,1.0,100,0.00,,,0.02,0.000000,,2013-06-17 05:12:00,
2013-06-17 01:22:00,67.0,67.0,-100.00,SE,124,0.0,1.0,100,0.00,,,0.02,0.000000,,2013-06-17 05:22:00,
2013-06-17 01:44:00,66.0,66.0,-100.00,SE,128,0.0,0.0,100,0.00,,,0.02,0.000000,,2013-06-17 05:44:00,
2013-06-17 01:53:00,66.0,66.0,-100.00,SE,128,0.0,0.0,100,0.00,,,0.02,0.000000,,2013-06-17 05:53:00,
2013-06-17 02:02:00,66.0,66.0,-100.00,SE,128,0.0,0.0,100,0.00,,,0.02,0.000000,,2013-06-17 06:02:00,
2013-06-17 02:12:00,66.0,66.0,-100.00,SE,128,0.0,0.0,100,0.00,,,0.02,0.000000,,2013-06-17 06:12:00,
2013-06-17 02:22:00,66.0,66.0,-100.00,SE,128,0.0,0.0,100,0.00,,,0.02,0.000000,,2013-06-17 06:22:00,
2013-06-17 02:43:00,67.0,67.0,-100.00,ESE,117,0.0,0.0,100,0.00,,,0.02,0.000000,,2013-06-17 06:43:00,
2013-06-17 02:53:00,67.0,67.0,-100.00,ESE,117,0.0,0.0,100,0.00,,,0.02,0.000000,,2013-06-17 06:53:00,
2013-06-17 03:02:00,67.0,67.0,-100.00,ESE,117,0.0,0.0,100,0.00,,,0.02,0.000000,,2013-06-17 07:02:00,
2013-06-17 03:12:00,67.0,67.0,-100.00,ESE,117,0.0,0.0,100,0.00,,,0.02,0.000000,,2013-06-17 07:12:00,
2013-06-17 03:22:00,67.0,67.0,-100.00,ESE,117,0.0,0.0,100,0.00,,,0.02,0.000000,,2013-06-17 07:22:00,
2013-06-17 03:43:00,66.0,66.0,-100.00,ESE,123,0.0,0.0,100,0.00,,,0.02,0.000000,,2013-06-17 07:43:00,
2013-06-17 03:53:00,66.0,66.0,-100.00,ESE,123,0.0,0.0,100,0.00,,,0.02,0.000000,,2013-06-17 07:53:00,
2013-06-17 04:02:00,66.0,66.0,-100.00,ESE,123,0.0,0.0,100,0.00,,,0.02,0.000000,,2013-06-17 08:02:00,
2013-06-17 04:12:00,66.0,66.0,-100.00,ESE,123,0.0,0.0,100,0.00,,,0.02,0.000000,,2013-06-17 08:12:00,
2013-06-17 04:22:00,66.0,66.0,-100.00,ESE,123,0.0,0.0,100,0.00,,,0.02,0.000000,,2013-06-17 08:22:00,
2013-06-17 04:43:00,66.0,66.0,-100.00,SW,233,0.0,2.0,100,0.00,,,0.02,0.000000,,2013-06-17 08:43:00,
2013-06-17 04:53:00,66.0,66.0,-100.00,SW,233,0.0,2.0,100,0.00,,,0.02,0.000000,,2013-06-17 08:53:00,
2013-06-17 05:02:00,66.0,66.0,-100.00,SW,233,0.0,2.0,100,0.00,,,0.02,0.000000,,2013-06-17 09:02:00,
2013-06-17 05:12:00,66.0,66.0,-100.00,SW,233,0.0,2.0,100,0.00,,,0.02,0.000000,,2013-06-17 09:12:00,
2013-06-17 05:22:00,66.0,66.0,-100.00,SW,233,0.0,2.0,100,0.00,,,0.02,0.000000,,2013-06-17 09:22:00,
2013-06-17 05:44:00,66.0,66.0,-100.00,ESE,123,0.0,2.0,100,0.00,,,0.02,0.000000,,2013-06-17 09:44:00,
2013-06-17 05:53:00,66.0,66.0,-100.00,ESE,123,0.0,2.0,100,0.00,,,0.02,0.000000,,2013-06-17 09:53:00,
2013-06-17 06:02:00,66.0,66.0,-100.00,ESE,123,0.0,2.0,100,0.00,,,0.02,0.000000,,2013-06-17 10:02:00,
2013-06-17 06:12:00,66.0,66.0,-100.00,ESE,123,0.0,2.0,100,0.00,,,0.02,0.000000,,2013-06-17 10:12:00,
2013-06-17 06:22:00,66.0,66.0,-100.00,ESE,123,0.0,2.0,100,0.00,,,0.02,0.000000,,2013-06-17 10:22:00,
2013-06-17 06:23:00,66.0,66.0,-100.00,North,4,1.0,2.0,100,0.00,,,0.02,4.000000,,2013-06-17 10:23:00,
2013-06-17 06:43:00,66.0,66.0,-100.00,North,4,1.0,2.0,100,0.00,,,0.02,4.000000,,2013-06-17 10:43:00,
2013-06-17 06:54:00,66.0,66.0,-100.00,North,4,1.0,2.0,100,0.00,,,0.02,4.000000,,2013-06-17 10:54:00,
2013-06-17 07:02:00,66.0,66.0,-100.00,North,4,1.0,2.0,100,0.00,,,0.02,4.000000,,2013-06-17 11:02:00,
2013-06-17 07:12:00,66.0,66.0,-100.00,North,4,1.0,2.0,100,0.00,,,0.02,4.000000,,2013-06-17 11:12:00,
2013-06-17 07:23:00,67.0,67.0,-100.00,SE,143,0.0,1.0,100,0.00,,,0.02,43.000000,,2013-06-17 11:23:00,
2013-06-17 07:43:00,67.0,67.0,-100.00,SE,143,0.0,1.0,100,0.00,,,0.02,43.000000,,2013-06-17 11:43:00,
2013-06-17 07:53:00,67.0,67.0,-100.00,SE,143,0.0,1.0,100,0.00,,,0.02,43.000000,,2013-06-17 11:53:00,
2013-06-17 08:02:00,67.0,67.0,-100.00,SE,143,0.0,1.0,100,0.00,,,0.02,43.000000,,2013-06-17 12:02:00,
2013-06-17 08:12:00,67.0,67.0,-100.00,SE,143,0.0,1.0,100,0.00,,,0.02,43.000000,,2013-06-17 12:12:00,
2013-06-17 08:43:00,69.0,69.0,-100.00,NNE,21,0.0,2.0,100,0.00,,,0.02,52.000000,,2013-06-17 12:43:00,
2013-06-17 08:53:00,69.0,69.0,-100.00,NNE,21,0.0,2.0,100,0.00,,,0.02,52.000000,,2013-06-17 12:53:00,
2013-06-17 09:02:00,69.0,69.0,-100.00,NNE,21,0.0,2.0,100,0.00,,,0.02,52.000000,,2013-06-17 13:02:00,
2013-06-17 09:12:00,69.0,69.0,-100.00,NNE,21,0.0,2.0,100,0.00,,,0.02,52.000000,,2013-06-17 13:12:00,
2013-06-17 09:22:00,69.0,69.0,-100.00,NNE,21,0.0,2.0,100,0.00,,,0.02,52.000000,,2013-06-17 13:22:00,
2013-06-17 09:43:00,73.0,73.0,-100.00,North,357,1.0,2.0,100,0.00,,,0.01,184.000000,,2013-06-17 13:43:00,
2013-06-17 09:53:00,73.0,73.0,-100.00,North,357,1.0,2.0,100,0.00,,,0.01,184.000000,,2013-06-17 13:53:00,
2013-06-17 10:02:00,73.0,73.0,-100.00,North,357,1.0,2.0,100,0.00,,,0.01,184.000000,,2013-06-17 14:02:00,
2013-06-17 10:12:00,73.0,73.0,-100.00,North,357,1.0,2.0,100,0.00,,,0.01,184.000000,,2013-06-17 14:12:00,
2013-06-17 10:22:00,73.0,73.0,-100.00,North,357,1.0,2.0,100,0.00,,,0.01,184.000000,,2013-06-17 14:22:00,
2013-06-17 10:44:00,77.0,77.0,-100.00,East,90,0.0,2.0,99,0.00,,,0.01,353.000000,,2013-06-17 14:44:00,
2013-06-17 11:43:00,77.0,75.0,-100.00,North,349,0.0,0.0,94,0.00,,,0.01,281.000000,,2013-06-17 15:43:00,
2013-06-17 11:53:00,77.0,75.0,-100.00,North,349,0.0,0.0,94,0.00,,,0.01,281.000000,,2013-06-17 15:53:00,
2013-06-17 12:02:00,77.0,75.0,-100.00,North,349,0.0,0.0,94,0.00,,,0.01,281.000000,,2013-06-17 16:02:00,
2013-06-17 12:12:00,77.0,75.0,-100.00,North,349,0.0,0.0,94,0.00,,,0.01,281.000000,,2013-06-17 16:12:00,
2013-06-17 12:22:00,77.0,75.0,-100.00,North,349,0.0,0.0,94,0.00,,,0.01,281.000000,,2013-06-17 16:22:00,
2013-06-17 13:23:00,83.0,68.0,-100.00,NNE,19,0.0,1.0,60,0.00,,,0.00,714.000000,,2013-06-17 17:23:00,
2013-06-17 13:43:00,83.0,68.0,-100.00,NNE,19,0.0,1.0,60,0.00,,,0.00,714.000000,,2013-06-17 17:43:00,
2013-06-17 13:52:00,83.0,68.0,-100.00,NNE,19,0.0,1.0,60,0.00,,,0.00,714.000000,,2013-06-17 17:52:00,
2013-06-17 14:02:00,83.0,68.0,-100.00,NNE,19,0.0,1.0,60,0.00,,,0.00,714.000000,,2013-06-17 18:02:00,
2013-06-17 14:12:00,83.0,68.0,-100.00,NNE,19,0.0,1.0,60,0.00,,,0.00,714.000000,,2013-06-17 18:12:00,
2013-06-17 14:43:00,83.0,71.0,-100.00,North,350,0.0,0.0,68,0.00,,,0.00,746.000000,,2013-06-17 18:43:00,
2013-06-17 14:53:00,83.0,71.0,-100.00,North,350,0.0,0.0,68,0.00,,,0.00,746.000000,,2013-06-17 18:53:00,
2013-06-17 15:02:00,83.0,71.0,-100.00,North,350,0.0,0.0,68,0.00,,,0.00,746.000000,,2013-06-17 19:02:00,
2013-06-17 15:12:00,83.0,71.0,-100.00,North,350,0.0,0.0,68,0.00,,,0.00,746.000000,,2013-06-17 19:12:00,
2013-06-17 15:22:00,83.0,71.0,-100.00,North,350,0.0,0.0,68,0.00,,,0.00,746.000000,,2013-06-17 19:22:00,
2013-06-17 15:43:00,84.0,72.0,-100.00,North,11,0.0,1.0,68,0.00,,,0.00,648.000000,,2013-06-17 19:43:00,
2013-06-17 15:54:00,84.0,72.0,-100.00,North,11,0.0,1.0,68,0.00,,,0.00,648.000000,,2013-06-17 19:54:00,
2013-06-17 16:02:00,84.0,72.0,-100.00,North,11,0.0,1.0,68,0.00,,,0.00,648.000000,,2013-06-17 20:02:00,
2013-06-17 16:11:00,84.0,72.0,-100.00,North,11,0.0,1.0,68,0.00,,,0.00,648.000000,,2013-06-17 20:11:00,
2013-06-17 16:22:00,84.0,72.0,-100.00,North,11,0.0,1.0,68,0.00,,,0.00,648.000000,,2013-06-17 20:22:00,
2013-06-17 16:43:00,80.0,73.0,-100.00,East,80,0.0,1.0,79,0.00,,,0.00,369.000000,,2013-06-17 20:43:00,
2013-06-17 16:52:00,80.0,73.0,-100.00,East,80,0.0,1.0,79,0.00,,,0.00,369.000000,,2013-06-17 20:52:00,
2013-06-17 17:01:00,80.0,73.0,-100.00,East,80,0.0,1.0,79,0.00,,,0.00,369.000000,,2013-06-17 21:01:00,
2013-06-17 17:12:00,80.0,73.0,-100.00,East,80,0.0,1.0,79,0.00,,,0.00,369.000000,,2013-06-17 21:12:00,
2013-06-17 17:22:00,80.0,73.0,-100.00,East,80,0.0,1.0,79,0.00,,,0.00,369.000000,,2013-06-17 21:22:00,
2013-06-17 18:53:00,75.0,73.0,-100.00,ESE,118,0.0,0.0,94,-99.99,,,0.00,139.000000,,2013-06-17 22:53:00,
2013-06-17 19:02:00,75.0,73.0,-100.00,ESE,118,0.0,0.0,94,-99.99,,,0.00,139.000000,,2013-06-17 23:02:00,
2013-06-17 19:11:00,75.0,73.0,-100.00,ESE,118,0.0,0.0,94,-99.99,,,0.00,139.000000,,2013-06-17 23:11:00,
2013-06-17 19:43:00,73.0,70.0,-100.00,ESE,118,2.0,7.0,90,0.00,,,0.00,74.000000,,2013-06-17 23:43:00,
2013-06-17 19:53:00,73.0,70.0,-100.00,ESE,118,2.0,7.0,90,0.00,,,0.00,74.000000,,2013-06-17 23:53:00,
2013-06-17 20:01:00,73.0,70.0,-100.00,ESE,118,2.0,7.0,90,0.00,,,0.00,74.000000,,2013-06-18 00:01:00,
2013-06-17 20:12:00,73.0,70.0,-100.00,ESE,118,2.0,7.0,90,0.00,,,0.00,74.000000,,2013-06-18 00:12:00,
2013-06-17 20:22:00,73.0,70.0,-100.00,ESE,118,2.0,7.0,90,0.00,,,0.00,74.000000,,2013-06-18 00:22:00,
2013-06-17 20:23:00,67.0,67.0,-100.00,ESE,121,0.0,2.0,100,0.00,,,0.00,22.000000,,2013-06-18 00:23:00,
2013-06-17 20:52:00,67.0,67.0,-100.00,ESE,121,0.0,2.0,100,0.00,,,0.00,22.000000,,2013-06-18 00:52:00,
2013-06-17 21:01:00,67.0,67.0,-100.00,ESE,121,0.0,2.0,100,0.00,,,0.00,22.000000,,2013-06-18 01:01:00,
2013-06-17 21:12:00,67.0,67.0,-100.00,ESE,121,0.0,2.0,100,0.00,,,0.00,22.000000,,2013-06-18 01:12:00,
2013-06-17 21:44:00,66.0,66.0,-100.00,ESE,113,0.0,0.0,100,0.00,,,0.00,4.000000,,2013-06-18 01:44:00,
2013-06-17 21:53:00,66.0,66.0,-100.00,ESE,113,0.0,0.0,100,0.00,,,0.00,4.000000,,2013-06-18 01:53:00,
2013-06-17 22:02:00,66.0,66.0,-100.00,ESE,113,0.0,0.0,100,0.00,,,0.00,4.000000,,2013-06-18 02:02:00,
2013-06-17 22:11:00,66.0,66.0,-100.00,ESE,113,0.0,0.0,100,0.00,,,0.00,4.000000,,2013-06-18 02:11:00,
2013-06-17 22:22:00,66.0,66.0,-100.00,ESE,113,0.0,0.0,100,0.00,,,0.00,4.000000,,2013-06-18 02:22:00,
2013-06-17 22:23:00,66.0,66.0,-100.00,ESE,107,0.0,0.0,100,0.00,,,0.00,0.000000,,2013-06-18 02:23:00,
2013-06-17 22:53:00,66.0,66.0,-100.00,ESE,107,0.0,0.0,100,0.00,,,0.00,0.000000,,2013-06-18 02:53:00,
2013-06-17 23:02:00,66.0,66.0,-100.00,ESE,107,0.0,0.0,100,0.00,,,0.00,0.000000,,2013-06-18 03:02:00,
2013-06-17 23:12:00,66.0,66.0,-100.00,ESE,107,0.0,0.0,100,0.00,,,0.00,0.000000,,2013-06-18 03:12:00,
2013-06-17 23:23:00,65.0,65.0,-100.00,ESE,108,0.0,0.0,100,0.00,,,0.00,0.000000,,2013-06-18 03:23:00,
2013-06-17 23:53:00,65.0,65.0,-100.00,ESE,108,0.0,0.0,100,0.00,,,0.00,0.000000,,2013-06-18 03:53:00,